Weather History for KFSO - November, 2013

Change the Weather History Date:

Friday, November 22, 2013

  Actual Average (KPBG) Record (KPBG)
Temperature  
Mean Temperature 40 °F 34 °F  
Max Temperature 43 °F 43 °F - ()
Min Temperature 38 °F 25 °F - ()
Degree Days  
Heating Degree Days 24 31  
Month to date heating degree days 588  
Since 1 July heating degree days 1371  
Cooling Degree Days 0 0  
Month to date cooling degree days 0  
Year to date cooling degree days 346  
Moisture  
Dew Point 34 °F    
Average Humidity 79    
Maximum Humidity 90    
Minimum Humidity 51    
Precipitation  
Precipitation 0.00 in - - ()
Month to date precipitation  
Year to date precipitation  
Sea Level Pressure  
Sea Level Pressure 30.05 in    
Wind  
Wind Speed 3 mph (South)    
Max Wind Speed 10 mph    
Max Gust Speed 20 mph    
Visibility 8 miles    
Events Rain    
T = Trace of Precipitation, MM = Missing Value Source: NWS Daily Summary

Daily Weather History Graph

Daily Weather History Graph

Search for Another Location

Airport or City:

Trip Planner

Search our weather history database for the weather conditions in past years. The results will help you decide how hot, cold, wet, or windy it might be!

Date:

Astronomy

Nov. 22, 2013 Rise Set
Actual Time 6:59 AM EST 4:17 PM EST
Civil Twilight 6:27 AM EST 4:49 PM EST
Nautical Twilight 5:51 AM EST 5:25 PM EST
Astronomical Twilight 5:16 AM EST 6:00 PM EST
Moon 8:50 PM EST (11/22) 10:38 AM EST (11/22)
Length of Visible Light 10h 22m
Length of Day
9h 17m
Waning Gibbous, 78% of the Moon is Illuminated
Nov 22
Waning Gibbous
Nov 25
Last Quarter
Dec 2
New
Dec 9
First Quarter
Dec 17
Full

Hourly Weather History & Observations

Time (EST) Temp. Windchill Dew Point Humidity Pressure Visibility Wind Dir Wind Speed Gust Speed Precip Events Conditions
12:15 AM 41.0 °F 39.0 °F 23.9 °F 51% 30.32 in 10.0 mi South 3.5 mph - N/A   Overcast
12:35 AM 41.0 °F - 24.3 °F 51% 30.31 in 10.0 mi Calm Calm - N/A   Overcast
12:55 AM 41.0 °F 38.0 °F 24.8 °F 53% 30.31 in 10.0 mi South 4.6 mph - N/A   Overcast
1:15 AM 41.0 °F 39.0 °F 25.2 °F 53% 30.30 in 10.0 mi South 3.5 mph - N/A   Overcast
1:35 AM 41.0 °F 39.0 °F 25.5 °F 54% 30.30 in 10.0 mi South 3.5 mph - N/A   Overcast
1:55 AM 41.0 °F 39.0 °F 25.7 °F 55% 30.30 in 10.0 mi SSW 3.5 mph - N/A   Overcast
2:15 AM 41.0 °F 38.0 °F 25.9 °F 55% 30.29 in 10.0 mi South 4.6 mph - N/A   Overcast
2:35 AM 41.0 °F 39.0 °F 26.4 °F 56% 30.28 in 10.0 mi SSW 3.5 mph - N/A   Overcast
2:55 AM 41.0 °F 38.0 °F 26.4 °F 56% 30.27 in 10.0 mi South 4.6 mph - N/A   Overcast
3:15 AM 41.0 °F 39.0 °F 26.6 °F 57% 30.26 in 10.0 mi South 3.5 mph - N/A   Overcast
3:35 AM 41.0 °F - 27.5 °F 59% 30.25 in 10.0 mi Calm Calm - N/A   Overcast
3:55 AM 41.0 °F - 27.5 °F 59% 30.25 in 10.0 mi Calm Calm - N/A   Overcast
4:15 AM 41.0 °F - 27.5 °F 59% 30.24 in 10.0 mi Calm Calm - N/A   Overcast
4:35 AM 41.0 °F - 27.9 °F 60% 30.23 in 10.0 mi Calm Calm - N/A   Overcast
4:55 AM 41.0 °F - 28.2 °F 60% 30.22 in 10.0 mi Calm Calm - N/A   Overcast
5:15 AM 41.0 °F 39.0 °F 28.4 °F 61% 30.22 in 10.0 mi South 3.5 mph - N/A   Overcast
5:35 AM 41.0 °F 39.0 °F 28.4 °F 61% 30.22 in 10.0 mi South 3.5 mph - N/A   Overcast
5:55 AM 41.0 °F 39.0 °F 28.4 °F 61% 30.21 in 10.0 mi South 3.5 mph - N/A   Overcast
6:15 AM 41.0 °F 38.0 °F 29.5 °F 64% 30.20 in 10.0 mi South 4.6 mph - N/A   Overcast
6:35 AM 41.0 °F 38.0 °F 32.0 °F 70% 30.20 in 7.0 mi SSW 4.6 mph - N/A   Overcast
6:55 AM 41.0 °F 39.0 °F 33.3 °F 74% 30.20 in 5.0 mi South 3.5 mph - N/A   Overcast
7:15 AM 38.8 °F - 32.2 °F 77% 30.19 in 5.0 mi Calm Calm - N/A   Overcast
7:35 AM 38.3 °F 35.9 °F 32.5 °F 80% 30.18 in 4.0 mi South 3.5 mph - N/A   Overcast
7:55 AM 38.3 °F 35.9 °F 33.3 °F 82% 30.17 in 5.0 mi South 3.5 mph - N/A   Overcast
8:15 AM 38.3 °F 35.9 °F 34.2 °F 85% 30.17 in 5.0 mi SSE 3.5 mph - N/A   Overcast
8:35 AM 38.3 °F - 34.7 °F 87% 30.17 in 5.0 mi Calm Calm - N/A   Overcast
8:55 AM 38.3 °F - 34.7 °F 87% 30.16 in 5.0 mi Calm Calm - N/A   Overcast
9:15 AM 38.3 °F - 34.9 °F 87% 30.15 in 5.0 mi Calm Calm - N/A   Overcast
9:35 AM 38.3 °F - 35.1 °F 88% 30.14 in 7.0 mi Calm Calm - N/A   Overcast
9:55 AM 38.3 °F 34.8 °F 35.2 °F 89% 30.13 in 10.0 mi East 4.6 mph - N/A   Overcast
10:15 AM 38.3 °F 33.9 °F 35.2 °F 89% 30.11 in 10.0 mi East 5.8 mph - N/A   Overcast
10:35 AM 38.3 °F - 35.2 °F 89% 30.10 in 10.0 mi Calm Calm - N/A   Overcast
10:55 AM 38.3 °F 33.9 °F 35.2 °F 89% 30.09 in 10.0 mi ESE 5.8 mph - N/A   Overcast
11:15 AM 38.3 °F 33.9 °F 35.2 °F 89% 30.08 in 10.0 mi East 5.8 mph - N/A   Overcast
11:35 AM 38.3 °F 33.9 °F 35.2 °F 89% 30.06 in 10.0 mi ESE 5.8 mph - N/A   Overcast
11:55 AM 39.0 °F - 35.8 °F 88% 30.06 in 10.0 mi Calm Calm - N/A   Overcast
12:15 PM 40.3 °F - 37.2 °F 89% 30.05 in 10.0 mi Calm Calm - N/A   Overcast
12:35 PM 40.1 °F - 36.9 °F 88% 30.04 in 10.0 mi Calm Calm - N/A   Overcast
12:55 PM 41.0 °F - 37.6 °F 88% 30.02 in 10.0 mi Calm Calm - N/A   Overcast
1:15 PM 41.0 °F 39.0 °F 37.6 °F 88% 30.01 in 10.0 mi SE 3.5 mph - N/A   Overcast
1:35 PM 41.0 °F - 37.6 °F 88% 30.00 in 10.0 mi Calm Calm - N/A   Overcast
1:55 PM 41.0 °F 37.1 °F 37.6 °F 88% 30.00 in 10.0 mi South 5.8 mph - N/A   Overcast
2:15 PM 41.4 °F 38.4 °F 37.9 °F 88% 29.99 in 7.0 mi South 4.6 mph - N/A   Overcast
2:35 PM 41.2 °F - 37.8 °F 88% 29.99 in 7.0 mi Calm Calm - N/A   Overcast
2:55 PM 41.0 °F 39.0 °F 37.4 °F 87% 29.98 in 7.0 mi South 3.5 mph - N/A   Overcast
3:15 PM 41.0 °F 38.0 °F 37.4 °F 87% 29.97 in 5.0 mi South 4.6 mph - N/A   Overcast
3:35 PM 41.0 °F 38.0 °F 37.4 °F 87% 29.95 in 5.0 mi South 4.6 mph - N/A   Overcast
3:55 PM 41.0 °F 39.0 °F 37.4 °F 87% 29.95 in 5.0 mi South 3.5 mph - N/A   Overcast
4:15 PM 41.0 °F - 37.4 °F 87% 29.95 in 5.0 mi Calm Calm - N/A   Overcast
4:35 PM 41.0 °F 39.0 °F 37.4 °F 87% 29.93 in 7.0 mi South 3.5 mph - N/A   Overcast
4:55 PM 41.0 °F - 37.4 °F 87% 29.93 in 7.0 mi Calm Calm - N/A   Overcast
5:15 PM 41.0 °F - 37.6 °F 88% 29.92 in 5.0 mi Calm Calm - N/A   Overcast
5:35 PM 41.0 °F - 37.8 °F 88% 29.91 in 5.0 mi Calm Calm - N/A   Overcast
5:55 PM 41.0 °F - 37.8 °F 88% 29.89 in 4.0 mi Calm Calm - N/A   Light Drizzle
6:15 PM 41.0 °F - 37.8 °F 88% 29.87 in 3.0 mi Calm Calm - N/A   Overcast
6:35 PM 41.0 °F - 37.9 °F 89% 29.87 in 3.0 mi Calm Calm - N/A   Overcast
6:55 PM 41.0 °F 39.0 °F 38.1 °F 89% 29.85 in 5.0 mi SSE 3.5 mph - N/A   Overcast
7:15 PM 41.0 °F - 37.9 °F 89% 29.84 in 5.0 mi Calm Calm - N/A   Overcast
7:35 PM 42.1 °F 38.4 °F 39.4 °F 90% 29.84 in 4.0 mi SSW 5.8 mph - N/A Rain Light Rain
7:55 PM 43.3 °F 39.9 °F 40.5 °F 90% 29.82 in 3.0 mi South 5.8 mph - N/A   Drizzle
8:35 PM 42.6 °F 37.8 °F 39.9 °F 90% 29.80 in 2.5 mi South 8.1 mph - N/A Rain Light Rain
8:55 PM 43.3 °F 39.9 °F 40.5 °F 90% 29.80 in 3.0 mi South 5.8 mph - N/A Rain Light Rain
9:15 PM 43.3 °F 38.1 °F 40.5 °F 90% 29.79 in 4.0 mi SSW 9.2 mph - N/A   Drizzle
9:35 PM 43.3 °F 37.7 °F 40.5 °F 90% 29.79 in 4.0 mi SSW 10.4 mph - N/A   Drizzle
9:55 PM 43.3 °F 39.9 °F 40.6 °F 90% 29.79 in 4.0 mi SSW 5.8 mph - N/A Rain Rain
10:15 PM 43.7 °F 38.1 °F 41.0 °F 90% 29.80 in 5.0 mi WSW 10.4 mph 19.6 mph N/A   Overcast
10:35 PM 43.3 °F 39.9 °F 40.3 °F 89% 29.80 in 10.0 mi West 5.8 mph - N/A   Light Drizzle
10:55 PM 43.3 °F 39.9 °F 39.7 °F 87% 29.81 in 10.0 mi West 5.8 mph - N/A   Drizzle
11:15 PM 42.1 °F 37.1 °F 37.8 °F 85% 29.82 in 10.0 mi West 8.1 mph 17.3 mph N/A Rain Rain
11:35 PM 41.2 °F 36.0 °F 36.7 °F 84% 29.82 in 10.0 mi West 8.1 mph 18.4 mph N/A   Overcast
11:55 PM 41.0 °F 35.8 °F 35.8 °F 82% 29.83 in 10.0 mi West 8.1 mph 17.3 mph N/A   Overcast